Погода в Ванзетуре

Россия / Ханты-Мансийский автономный округ - Югра     63°32′11″N   64°48′49″E
темп.,
°C
ветер,
м/с
пор.,
м/с
влажн.,
%
обл.,
%
осадки,
мм/ч
давл.,
гПа
погр.,
м
10 мая, пн
пн1023:00+14ююв4116355 0.0 1023258
02:00+12ю411695 0.0 1024248
05:00+11ю411735 0.0 1025248
08:00+15ю510585 0.0 1025404
11:00+20ю69435 0.0 10251017
14:00+23ю69351 0.0 10231969
17:00+23ююз69345 0.0 10222486
20:00+20ю612405 0.0 1022687
11 мая, вт
вт1123:00+17ююз61548100 0.0 1021503
02:00+15ююз51457100 0.3 1021535
05:00+12ююз3776100 0.6 1021212
08:00+8ссв6988100 1.4 1023494
11:00+6с4886100 3.6 1024531
14:00+10с356028 0.0 10251001
17:00+12св454999 0.0 1025955
20:00+9вюв34675 0.0 1026249
12 мая, ср
ср1223:00+6ююв238239 0.0 102657
02:00+5юз2384100 0.0 102550
05:00+6зюз258099 0.0 1025107
08:00+10зсз346096 0.0 1025534
11:00+12сз3445100 0.0 10251064
14:00+13зюз2450100 0.0 10241113
17:00+12юз3574100 0.1 1023453
20:00+11ююз238631 0.0 102298
13 мая, чт
чт1323:00+9зюз2393100 0.0 102249
02:00+9зюз2493100 0.0 102163
05:00+10ссз289296 0.0 1022229
08:00+12ссз5116297 0.0 1023910
11:00+14с6949100 0.0 10241580
14:00+14с5845100 0.0 10261658
17:00+14с464158 0.0 10261447
20:00+12ссв244993 0.0 102795
14 мая, пт
пт1423:00+8в235887 0.0 102642
02:00+8ююв2457100 0.0 1025100
05:00+7ююв3861100 0.0 1023215
08:00+8юв3678100 1.0 1019217
11:00+11ююз257699 1.0 1016185
14:00+18ссз376187 0.1 1013554
17:00+17ссв456388 0.8 1013418
20:00+11св478010 0.3 1015374